This is the latest recevied weather packets stored in our database for station/object SA7AHC. If no packets are shown the sender has not sent any weather packets the latest 10 day(s).
| Time | Temp. | Humidity | Pressure | Rain* | Wind** | Luminosity | Snow |
|---|---|---|---|---|---|---|---|
| 1777916960 | 12.22° C | 52% | 1009.4 hPa | 0 mm | - | 19 W/m² | - |
| 1777916358 | 12.22° C | 53% | 1009.4 hPa | 0 mm | - | 23 W/m² | - |
| 1777915758 | 12.78° C | 52% | 1009.1 hPa | 0 mm | - | 26 W/m² | - |
| 1777915157 | 12.78° C | 52% | 1009.3 hPa | 0 mm | - | 32 W/m² | - |
| 1777914558 | 13.33° C | 51% | 1009.3 hPa | 0 mm | - | 39 W/m² | - |
| 1777913960 | 13.33° C | 51% | 1009.1 hPa | 0 mm | - | 127 W/m² | - |
| 1777913352 | 13.33° C | 49% | 1008.9 hPa | 0 mm | - | 176 W/m² | - |
| 1777912749 | 13.89° C | 48% | 1009 hPa | 0 mm | - | 206 W/m² | - |
| 1777912154 | 13.89° C | 46% | 1009 hPa | 0 mm | - | 232 W/m² | - |
| 1777911549 | 14.44° C | 46% | 1009 hPa | 0 mm | - | 260 W/m² | - |
| 1777910948 | 15° C | 45% | 1009.1 hPa | 0 mm | - | 288 W/m² | - |
| 1777910346 | 14.44° C | 47% | 1008.9 hPa | 0 mm | - | 313 W/m² | - |
| 1777909749 | 14.44° C | 43% | 1009 hPa | 0 mm | - | 336 W/m² | - |
| 1777909149 | 14.44° C | 45% | 1009 hPa | 0 mm | - | 364 W/m² | - |
| 1777908545 | 14.44° C | 43% | 1008.7 hPa | 0 mm | - | 387 W/m² | - |
| 1777907946 | 15° C | 43% | 1008.7 hPa | 0 mm | - | 413 W/m² | - |
| 1777907345 | 15.56° C | 40% | 1008.7 hPa | 0 mm | - | 434 W/m² | - |
| 1777906746 | 15° C | 42% | 1008.7 hPa | 0 mm | - | 457 W/m² | - |
| 1777906143 | 15° C | 36% | 1008.6 hPa | 0 mm | - | 482 W/m² | - |
| 1777905541 | 15° C | 37% | 1008.6 hPa | 0 mm | - | 501 W/m² | - |
| 1777904941 | 15.56° C | 35% | 1008.6 hPa | 0 mm | - | 522 W/m² | - |
| 1777904339 | 15° C | 36% | 1008.7 hPa | 0 mm | - | 543 W/m² | - |
| 1777903737 | 15° C | 35% | 1008.7 hPa | 0 mm | - | 561 W/m² | - |
| 1777903135 | 15° C | 36% | 1008.6 hPa | 0 mm | - | 580 W/m² | - |
| 1777902533 | 14.44° C | 41% | 1008.5 hPa | 0 mm | - | 598 W/m² | - |
* Rain latest hour (hover to see other rain measurements)
** Current wind speed in m/s (hover to see current wind gust speed)